Overview Statistics Trail Chart Weather Telemetry Raw packets
 

This is the latest recevied weather packets stored in our database for station/object DM8MH-13. If no packets are shown the sender has not sent any weather packets the latest 10 day(s).

<< 41 42 43 44 45 46 47 >>
Time Temp. Humidity Pressure Rain* Wind** Luminosity Snow
1787949670 17.78° C 88% 1010.5 hPa 0 mm - 0 W/m² -
1787949071 17.78° C 89% 1010.5 hPa 0 mm - 0 W/m² -
1787948470 17.78° C 89% 1010.9 hPa 0 mm - 0 W/m² -
1787947870 17.78° C 89% 1010.7 hPa 0 mm - 0 W/m² -
1787947270 17.78° C 89% 1010.5 hPa 0 mm - 0 W/m² -
1787946670 17.78° C 89% 1010.8 hPa 0 mm - 0 W/m² -
1787946070 17.78° C 89% 1010.5 hPa 0 mm - 0 W/m² -
1787945471 18.33° C 88% 1010.3 hPa 0 mm - 0 W/m² -
1787944870 18.33° C 88% 1010.6 hPa 0 mm - 0 W/m² -
1787944270 18.33° C 88% 1010.7 hPa 0.25 mm - 0 W/m² -
1787943670 18.33° C 88% 1010.6 hPa 2.29 mm - 0 W/m² -
1787943070 18.33° C 87% 1010.4 hPa 2.29 mm - 0 W/m² -
1787942470 18.89° C 86% 1010.4 hPa 2.29 mm - 0 W/m² -
1787941871 18.89° C 85% 1009.9 hPa 2.29 mm - 0 W/m² -
1787941270 18.89° C 84% 1009.7 hPa 2.29 mm - 0 W/m² -
1787940669 20.56° C 78% 1009.7 hPa 2.29 mm - 0 W/m² -
1787940070 23.33° C 68% 1009.4 hPa 0 mm - 7 W/m² -
1787939470 23.33° C 75% 1008.5 hPa 0 mm - 7 W/m² -
1787938870 23.33° C 75% 1008.5 hPa 0 mm - 7 W/m² -
1787938271 23.33° C 75% 1008.2 hPa 0 mm - 19 W/m² -
1787937670 23.33° C 75% 1008.5 hPa 0 mm - 26 W/m² -
1787937070 23.89° C 74% 1008.5 hPa 0 mm - 33 W/m² -
1787936470 23.89° C 73% 1008.6 hPa 0 mm - 43 W/m² -
1787935870 23.89° C 73% 1008.5 hPa 0 mm - 54 W/m² -
1787935269 23.89° C 72% 1008.4 hPa 0 mm - 54 W/m² -

* Rain latest hour (hover to see other rain measurements)
** Current wind speed in m/s (hover to see current wind gust speed)